Regional Weather Roundup
Issued by NWS

Home | Current Version | Previous Version | Graphics & Text | Print | Product List | Glossary On
Versions: 1 2 3 4 5 6 7 8 9 10 11 12 13 14 15 16 17 18 19 20 21 22 23 24 25 26 27 28 29 30 31 32 33 34 35 36 37 38 39 40 41 42 43 44 45 46 47 48 49 50
000
ASUS43 KMPX 261001
RWRMN
WEATHER ROUNDUP FOR MINNESOTA
NATIONAL WEATHER SERVICE TWIN CITIES/CHANHASSEN MN
500 AM CDT MON JUN 26 2017


NOTE: "FAIR" INDICATES FEW OR NO CLOUDS BELOW 12,000 FEET WITH NO
SIGNIFICANT WEATHER AND/OR OBSTRUCTIONS TO VISIBILITY. N/A MEANS
CURRENT SKY AND/OR WEATHER CONDITIONS ARE NOT AVAILABLE.

MNZ060>063-068>070-261100-
   Twin Cities Metro

CITY           SKY/WX    TMP DP  RH WIND       PRES   REMARKS
TWIN CITIES    CLEAR     51  43  74 NW5       30.16R
ST PAUL        CLEAR     50  45  83 NW7       30.16R
CRYSTAL        CLEAR     50  41  71 NW7       30.15R
BLAINE         CLEAR     48  43  81 NW5       30.15S
LAKEVILLE      CLEAR     48  45  87 W3        30.16R
EDEN PRAIRIE   CLEAR     53  44  71 NW7       30.15R
SOUTH ST PAUL  CLEAR     49  44  81 CALM      30.15S
LAKE ELMO      FAIR      48  45  87 NW3       30.16S
$$
MNZ001>005-007-008-013>017-022>024-027-028-261100-
   Northwest Minnesota

CITY           SKY/WX    TMP DP  RH WIND       PRES   REMARKS
BEMIDJI        CLEAR     39  38  95 W5        30.17S
HALLOCK        CLEAR     43  39  87 W3        30.19S
ROSEAU         CLEAR     46  43  87 W8        30.17R
WARROAD        PTCLDY    45  39  81 W6        30.16S
CROOKSTON      CLEAR     43  39  87 CALM      30.21R
FOSSTON        CLEAR     36  36 100 S3        30.20S
DETROIT LAKES  CLEAR     45  41  87 NW3       30.21S
MOORHEAD       CLEAR     45  39  81 CALM      30.22S
PARK RAPIDS    CLEAR     40  36  86 W7        30.18
MAHNOMEN       FAIR      42  41  94 CALM      30.21R
$$
MNZ006-009>011-018-025>026-261100-
   North Central Minnesota

CITY           SKY/WX    TMP DP  RH WIND       PRES   REMARKS
BAUDETTE       CLEAR     44  43  96 W6        30.14
FLAG ISLAND    CLOUDY    48  45  87 W12       30.12F
INTL FALLS     CLEAR     41  39  93 W3        30.11S
WASKISH        CLEAR     50  45  81 N7        30.14F
BIG FORK       CLEAR     39  37  93 CALM      30.13S
LONGVILLE      CLEAR     45  45 100 W3        30.16R
GRAND RAPIDS   CLEAR     46  44  93 W6        30.16R
CRANE LAKE     CLEAR     36  34  93 CALM      30.12S
ORR            CLEAR     43  41  93 NW7       30.09S
COOK           CLEAR     39  39 100 W3        30.12R
WALKER         FAIR      41  40  95 W5        30.17R
$$
MNZ012-019>021-037-261100-
   Northeast Minnesota

CITY           SKY/WX    TMP DP  RH WIND       PRES   REMARKS
DULUTH         CLOUDY    44  44 100 NW6       30.09S
ELY            PTCLDY    45  43  93 W3        30.09R
HIBBING        CLEAR     35  35 100 CALM      30.11S FOG
EVELETH        CLEAR     46  39  79 NW8       30.12R
DULUTH HARBOR  CLOUDY    52  46  82 W8        30.11S
TWO HARBORS    MOCLDY    52  46  82 NW5       30.06S
SILVER BAY     LGT RAIN  48  46  93 CALM      30.06S
GRAND MARAIS     N/A     50  49  96 NW6       30.05R
G MARAIS ARPRT RAIN      45  41  87 NW3       30.05S
$$
MNZ029>031-032-039>041-046>048-054>057-064-261100-
   West Central Minnesota

CITY           SKY/WX    TMP DP  RH WIND       PRES   REMARKS
FERGUS FALLS   CLEAR     46  41  81 CALM      30.20S
WHEATON        CLEAR     45  43  93 CALM      30.23S
MORRIS         CLEAR     45  43  93 NW5       30.20R
ALEXANDRIA     CLEAR     47  45  93 NW6       30.21R
ELBOW LAKE     FAIR      46  45  96 CALM      30.21S
WADENA         CLEAR     41  39  93 CALM      30.19S
GLENWOOD       CLEAR     46  43  87 NW5       30.20S
APPLETON       CLEAR     45  41  87 CALM      30.20S
BENSON         FOG       43  43 100 CALM      30.21S VSB 1/4
ORTONVILLE     CLEAR     50  46  87 NW5       30.21S
MADISON        CLEAR     50  48  93 NW6       30.20S
WILLMAR        FAIR      46  45  93 N5        30.21R
$$
MNZ033>034-036-042>043-049>051-058-059-261100-
   Central Minnesota

CITY           SKY/WX    TMP DP  RH WIND       PRES   REMARKS
ST CLOUD       CLEAR     44  42  93 NW3       30.18R
SAUK CENTRE    FAIR      41  40  96 W3        30.20R
PAYNESVILLE    CLEAR     42  42 100 W5        30.20R
AITKIN         FOG       37  36  93 CALM      30.14S VSB 1
PINE RIVER     CLEAR     45  43  93 CALM      30.20R
BRAINERD       CLEAR     47  44  90 W3        30.17
STAPLES        CLEAR     41  39  93 CALM      30.19R
LONG PRAIRIE   FAIR      45  41  87 NW3       30.20R
LITTLE FALLS   FOG       37  36  93 CALM      30.18S VSB 1
LITCHFIELD     CLEAR     50  46  87 NW3       30.19R
BUFFALO        PTCLDY    50  42  74 NW5       30.18S
MAPLE LAKE     PTCLDY    50  45  83 NW7       30.18S
HUTCHINSON     CLEAR     46  45  97 W3        30.19S
$$
MNZ037-044-045-052-053-261100-
   East Central Minnesota

CITY           SKY/WX    TMP DP  RH WIND       PRES   REMARKS
PRINCETON      CLEAR     41  39  93 CALM      30.17R
MORA           CLEAR     43  41  93 CALM      30.17R
CAMBRIDGE      CLEAR     45  37  76 CALM      30.15R
RUSH CITY      CLEAR     41  39  93 CALM      30.15R
MOOSE LAKE     CLEAR     37  36  93 CALM      30.12S
HINCKLEY       FAIR      41  41 100 CALM      30.14S
CLOQUET        CLEAR     43  39  87 W5        30.12R
MCGREGOR       CLEAR     45  43  93 W3        30.15R
$$
MNZ071>073-080-081-089-090-097-098-261100-
   Southwest Minnesota

CITY           SKY/WX    TMP DP  RH WIND       PRES   REMARKS
MONTEVIDEO     CLEAR     46  43  87 N5        30.20S
GRANITE FALLS  CLEAR     49  46  92 NW6       30.21S
CANBY          CLEAR     47  45  91 CALM      30.22R
MARSHALL       CLEAR     47  44  90 NW8       30.20S
REDWOOD FALLS  CLEAR     49  44  83 NW6       30.18S
OLIVIA         CLEAR     46  45  93 NW5       30.18S
PIPESTONE      CLEAR     52  48  87 N3        30.20S
WINDOM         CLEAR     48  46  93 CALM      30.19F
WORTHINGTON    CLEAR     49  47  93 NW7       30.20S
JACKSON        CLEAR     50  48  93 CALM      30.20S
TRACY          CLEAR     52  47  83 W6        30.20S
SLAYTON        CLEAR     47  46  96 NW7       30.20F
$$
MNZ065>067-074>077-082>085-091>093-261100-
   South Central Minnesota

CITY           SKY/WX    TMP DP  RH WIND       PRES   REMARKS
MANKATO        CLEAR     51  46  83 W5        30.18
NEW ULM        CLEAR     48  45  87 NW7       30.18S
ST JAMES       CLEAR     50  46  87 W7        30.19F
FAIRMONT       MOCLDY    54  50  86 NW7       30.19S
GLENCOE        CLEAR     48  47  97 CALM      30.17S
FARIBAULT      PTCLDY    48  46  93 W5        30.17R
OWATONNA       PTCLDY    50  46  87 CALM      30.17R
WASECA         PTCLDY    46  43  87 W3        30.18S
ALBERT LEA     PTCLDY    52  46  82 CALM      30.17R
$$
MNZ078>079-086>088-094>096-261100-
   Southeast Minnesota

CITY           SKY/WX    TMP DP  RH WIND       PRES   REMARKS
ROCHESTER      CLOUDY    49  47  93 NW7       30.16R
RED WING       MOCLDY    48  45  87 W3        30.14R
STANTON        CLEAR     47  44  92 CALM      30.15R
DODGE CENTER   PTCLDY    52  46  82 W6        30.16R
WINONA         CLEAR     48  46  93 CALM      30.14R
AUSTIN         PTCLDY    54  46  76 W8        30.16R
PRESTON        CLOUDY    50  45  83 NW7       30.15R
$$
ABBREVIATIONS USED IN REMARKS
   TC - TEMPERATURES IN CELSIUS
  WCI - WIND CHILL INDEX
   HX - HEAT INDEX
  VSB - VISIBILITY
$$




USA.gov is the U.S. government's official web portal to all federal, state and local government web resources and services.